Find Starlink 31002

NORAD ID: 58495 Int'l Des: 2023-186 Owner: SPXS Country: US Constellation: starlink operational
LEOCIRCULAR

Live-Position

3D-Globus wird geladen...

Über Starlink 31002

Beschreibung wird geladen...

Nächste Überflüge

Passes for default location (London). Set your location on the main map for personalized predictions.

Höhenverlauf

Loading altitude history...

Zweizeiliger Elementsatz

1 58495U 23186Y 26122.04683986 -.00000365 00000-0 -37326-5 0 9990
2 58495 43.0077 122.5494 0001461 266.6006 93.4679 15.27577569134212
Epoch: 2. Mai 2026 • Age: 20 hours

Aktueller Status

Höhe 485.9 km
Geschwindigkeit 7.62 km/s
Subsatellitenpunkt -16.43°S, 82.64°W
Startdatum 3. Dez. 2023
Alter 2.4 years
Typ internet

Technische Details

Klassifizierung Payload
Masse 730.00 kg
Trockenmasse 700.00 kg
Gesamtmasse 730.00 kg
Länge 0.30 m
Durchmesser 4.10 m
Spannweite 29.00 m
Form Box + pan
Hersteller SPXS
Bus-Typ Starlink V2M
Phasenstatus In Orbit
Besitzer/Staat SPXS/US

Most Searched